Year,Month,Day,Hour,Minute,Value (Times are PST for temperature in C)
2015,06,29,00,00,21.90
2015,06,29,00,01,21.90
2015,06,29,00,02,21.90
2015,06,29,00,03,21.90
2015,06,29,00,04,21.90
2015,06,29,00,05,21.90
2015,06,29,00,06,21.90
2015,06,29,00,07,21.80
2015,06,29,00,08,21.80
2015,06,29,00,09,21.80
2015,06,29,00,10,21.80
2015,06,29,00,11,21.80
2015,06,29,00,12,21.80
2015,06,29,00,13,21.80
2015,06,29,00,14,21.80
2015,06,29,00,15,21.80
2015,06,29,00,16,21.80
2015,06,29,00,17,21.80
2015,06,29,00,18,21.80
2015,06,29,00,19,21.80
2015,06,29,00,20,21.80
2015,06,29,00,21,21.80
2015,06,29,00,22,21.80
2015,06,29,00,23,21.80
2015,06,29,00,24,21.80
2015,06,29,00,25,21.80
2015,06,29,00,26,21.80
2015,06,29,00,27,21.80
2015,06,29,00,28,21.80
2015,06,29,00,29,21.80
2015,06,29,00,30,21.80
2015,06,29,00,31,21.70
2015,06,29,00,32,21.70
2015,06,29,00,33,21.70
2015,06,29,00,34,21.70
2015,06,29,00,35,21.70
2015,06,29,00,36,21.70
2015,06,29,00,37,21.70
2015,06,29,00,38,21.70
2015,06,29,00,39,21.70
2015,06,29,00,40,21.70
2015,06,29,00,41,21.70
2015,06,29,00,42,21.60
2015,06,29,00,43,21.60
2015,06,29,00,44,21.60
2015,06,29,00,45,21.60
2015,06,29,00,46,21.60
2015,06,29,00,47,21.60
2015,06,29,00,48,21.60
2015,06,29,00,49,21.60
2015,06,29,00,50,21.60
2015,06,29,00,51,21.50
2015,06,29,00,52,21.50
2015,06,29,00,53,21.50
2015,06,29,00,54,21.40
2015,06,29,00,55,21.40
2015,06,29,00,56,21.40
2015,06,29,00,57,21.40
2015,06,29,00,58,21.30
2015,06,29,00,59,21.30
2015,06,29,01,00,21.30
2015,06,29,01,01,21.30
2015,06,29,01,02,21.30
2015,06,29,01,03,21.20
2015,06,29,01,04,21.20
2015,06,29,01,05,21.20
2015,06,29,01,06,21.20
2015,06,29,01,07,21.20
2015,06,29,01,08,21.20
2015,06,29,01,09,21.20
2015,06,29,01,10,21.20
2015,06,29,01,11,21.10
2015,06,29,01,12,21.10
2015,06,29,01,13,21.10
2015,06,29,01,14,21.10
2015,06,29,01,15,21.10
2015,06,29,01,16,21.10
2015,06,29,01,17,21.00
2015,06,29,01,18,21.00
2015,06,29,01,19,21.00
2015,06,29,01,20,20.90
2015,06,29,01,21,20.90
2015,06,29,01,22,20.90
2015,06,29,01,23,20.90
2015,06,29,01,24,20.80
2015,06,29,01,25,20.80
2015,06,29,01,26,20.80
2015,06,29,01,27,20.80
2015,06,29,01,28,20.80
2015,06,29,01,29,20.70
2015,06,29,01,30,20.70
2015,06,29,01,31,20.70
2015,06,29,01,32,20.70
2015,06,29,01,33,20.70
2015,06,29,01,34,20.60
2015,06,29,01,35,20.60
2015,06,29,01,36,20.60
2015,06,29,01,37,20.60
2015,06,29,01,38,20.60
2015,06,29,01,39,20.50
2015,06,29,01,40,20.50
2015,06,29,01,41,20.50
2015,06,29,01,42,20.50
2015,06,29,01,43,20.40
2015,06,29,01,44,20.40
2015,06,29,01,45,20.40
2015,06,29,01,46,20.40
2015,06,29,01,47,20.40
2015,06,29,01,48,20.40
2015,06,29,01,49,20.40
2015,06,29,01,50,20.40
2015,06,29,01,51,20.40
2015,06,29,01,52,20.30
2015,06,29,01,53,20.30
2015,06,29,01,54,20.30
2015,06,29,01,55,20.30
2015,06,29,01,56,20.30
2015,06,29,01,57,20.30
2015,06,29,01,58,20.30
2015,06,29,01,59,20.30
2015,06,29,02,00,20.20
2015,06,29,02,01,20.20
2015,06,29,02,02,20.20
2015,06,29,02,03,20.20
2015,06,29,02,04,20.20
2015,06,29,02,05,20.20
2015,06,29,02,06,20.20
2015,06,29,02,07,20.20
2015,06,29,02,08,20.20
2015,06,29,02,09,20.10
2015,06,29,02,10,20.10
2015,06,29,02,11,20.10
2015,06,29,02,12,20.10
2015,06,29,02,13,20.10
2015,06,29,02,14,20.10
2015,06,29,02,15,20.10
2015,06,29,02,16,20.00
2015,06,29,02,17,20.00
2015,06,29,02,18,20.00
2015,06,29,02,19,20.00
2015,06,29,02,20,19.90
2015,06,29,02,21,19.90
2015,06,29,02,22,19.90
2015,06,29,02,23,19.90
2015,06,29,02,24,19.90
2015,06,29,02,25,19.90
2015,06,29,02,26,19.90
2015,06,29,02,27,19.80
2015,06,29,02,28,19.80
2015,06,29,02,29,19.80
2015,06,29,02,30,19.80
2015,06,29,02,31,19.80
2015,06,29,02,32,19.80
2015,06,29,02,33,19.80
2015,06,29,02,34,19.70
2015,06,29,02,35,19.70
2015,06,29,02,36,19.70
2015,06,29,02,37,19.70
2015,06,29,02,38,19.70
2015,06,29,02,39,19.70
2015,06,29,02,40,19.70
2015,06,29,02,41,19.70
2015,06,29,02,42,19.70
2015,06,29,02,43,19.60
2015,06,29,02,44,19.60
2015,06,29,02,45,19.60
2015,06,29,02,46,19.60
2015,06,29,02,47,19.60
2015,06,29,02,48,19.60
2015,06,29,02,49,19.60
2015,06,29,02,50,19.60
2015,06,29,02,51,19.60
2015,06,29,02,52,19.60
2015,06,29,02,53,19.60
2015,06,29,02,54,19.60
2015,06,29,02,55,19.50
2015,06,29,02,56,19.50
2015,06,29,02,57,19.50
2015,06,29,02,58,19.50
2015,06,29,02,59,19.50
2015,06,29,03,00,19.50
2015,06,29,03,01,19.50
2015,06,29,03,02,19.50
2015,06,29,03,03,19.40
2015,06,29,03,04,19.40
2015,06,29,03,05,19.40
2015,06,29,03,06,19.40
2015,06,29,03,07,19.40
2015,06,29,03,08,19.40
2015,06,29,03,09,19.40
2015,06,29,03,10,19.40
2015,06,29,03,11,19.40
2015,06,29,03,12,19.40
2015,06,29,03,13,19.40
2015,06,29,03,14,19.40
2015,06,29,03,15,19.40
2015,06,29,03,16,19.40
2015,06,29,03,17,19.40
2015,06,29,03,18,19.40
2015,06,29,03,19,19.30
2015,06,29,03,20,19.30
2015,06,29,03,21,19.40
2015,06,29,03,22,19.30
2015,06,29,03,23,19.30
2015,06,29,03,24,19.30
2015,06,29,03,25,19.30
2015,06,29,03,26,19.30
2015,06,29,03,27,19.30
2015,06,29,03,28,19.30
2015,06,29,03,29,19.30
2015,06,29,03,30,19.30
2015,06,29,03,31,19.30
2015,06,29,03,32,19.30
2015,06,29,03,33,19.30
2015,06,29,03,34,19.30
2015,06,29,03,35,19.30
2015,06,29,03,36,19.30
2015,06,29,03,37,19.30
2015,06,29,03,38,19.30
2015,06,29,03,39,19.30
2015,06,29,03,40,19.30
2015,06,29,03,41,19.30
2015,06,29,03,42,19.30
2015,06,29,03,43,19.30
2015,06,29,03,44,19.30
2015,06,29,03,45,19.30
2015,06,29,03,46,19.30
2015,06,29,03,47,19.30
2015,06,29,03,48,19.30
2015,06,29,03,49,19.30
2015,06,29,03,50,19.30
2015,06,29,03,51,19.30
2015,06,29,03,52,19.30
2015,06,29,03,53,19.30
2015,06,29,03,54,19.30
2015,06,29,03,55,19.30
2015,06,29,03,56,19.30
2015,06,29,03,57,19.20
2015,06,29,03,58,19.20
2015,06,29,03,59,19.20
2015,06,29,04,00,19.20
2015,06,29,04,01,19.20
2015,06,29,04,02,19.20
2015,06,29,04,03,19.20
2015,06,29,04,04,19.20
2015,06,29,04,05,19.20
2015,06,29,04,06,19.20
2015,06,29,04,07,19.20
2015,06,29,04,08,19.20
2015,06,29,04,09,19.20
2015,06,29,04,10,19.20
2015,06,29,04,11,19.20
2015,06,29,04,12,19.20
2015,06,29,04,13,19.20
2015,06,29,04,14,19.20
2015,06,29,04,15,19.20
2015,06,29,04,16,19.20
2015,06,29,04,17,19.20
2015,06,29,04,18,19.20
2015,06,29,04,19,19.20
2015,06,29,04,20,19.20
2015,06,29,04,21,19.20
2015,06,29,04,22,19.20
2015,06,29,04,23,19.10
2015,06,29,04,24,19.10
2015,06,29,04,25,19.10
2015,06,29,04,26,19.10
2015,06,29,04,27,19.10
2015,06,29,04,28,19.10
2015,06,29,04,29,19.10
2015,06,29,04,30,19.10
2015,06,29,04,31,19.00
2015,06,29,04,32,19.10
2015,06,29,04,33,19.10
2015,06,29,04,34,19.00
2015,06,29,04,35,19.00
2015,06,29,04,36,19.00
2015,06,29,04,37,19.00
2015,06,29,04,38,19.10
2015,06,29,04,39,19.00
2015,06,29,04,40,19.00
2015,06,29,04,41,19.10
2015,06,29,04,42,19.10
2015,06,29,04,43,19.10
2015,06,29,04,44,19.00
2015,06,29,04,45,19.10
2015,06,29,04,46,19.10
2015,06,29,04,47,19.10
2015,06,29,04,48,19.00
2015,06,29,04,49,19.00
2015,06,29,04,50,19.00
2015,06,29,04,51,19.00
2015,06,29,04,52,19.00
2015,06,29,04,53,19.00
2015,06,29,04,54,19.00
2015,06,29,04,55,19.00
2015,06,29,04,56,19.00
2015,06,29,04,57,19.00
2015,06,29,04,58,19.00
2015,06,29,04,59,19.00
2015,06,29,05,00,19.00
2015,06,29,05,01,19.00
2015,06,29,05,02,19.00
2015,06,29,05,03,19.00
2015,06,29,05,04,19.00
2015,06,29,05,05,19.00
2015,06,29,05,06,18.90
2015,06,29,05,07,18.90
2015,06,29,05,08,18.90
2015,06,29,05,09,18.90
2015,06,29,05,10,18.90
2015,06,29,05,11,18.80
2015,06,29,05,12,18.90
2015,06,29,05,13,18.90
2015,06,29,05,14,18.90
2015,06,29,05,15,18.90
2015,06,29,05,16,18.90
2015,06,29,05,17,18.90
2015,06,29,05,18,18.90
2015,06,29,05,19,18.90
2015,06,29,05,20,18.90
2015,06,29,05,21,18.90
2015,06,29,05,22,18.90
2015,06,29,05,23,18.90
2015,06,29,05,24,18.90
2015,06,29,05,25,18.90
2015,06,29,05,26,18.90
2015,06,29,05,27,18.90
2015,06,29,05,28,19.00
2015,06,29,05,29,19.00
2015,06,29,05,30,19.00
2015,06,29,05,31,19.10
2015,06,29,05,32,19.10
2015,06,29,05,33,19.10
2015,06,29,05,34,19.10
2015,06,29,05,35,19.10
2015,06,29,05,36,19.10
2015,06,29,05,37,19.10
2015,06,29,05,38,19.20
2015,06,29,05,39,19.20
2015,06,29,05,40,19.20
2015,06,29,05,41,19.20
2015,06,29,05,42,19.20
2015,06,29,05,43,19.20
2015,06,29,05,44,19.30
2015,06,29,05,45,19.30
2015,06,29,05,46,19.30
2015,06,29,05,47,19.30
2015,06,29,05,48,19.30
2015,06,29,05,49,19.30
2015,06,29,05,50,19.30
2015,06,29,05,51,19.30
2015,06,29,05,52,19.30
2015,06,29,05,53,19.30
2015,06,29,05,54,19.30
2015,06,29,05,55,19.30
2015,06,29,05,56,19.30
2015,06,29,05,57,19.30
2015,06,29,05,58,19.30
2015,06,29,05,59,19.30
2015,06,29,06,00,19.30
2015,06,29,06,01,19.30
2015,06,29,06,02,19.30
2015,06,29,06,03,19.30
2015,06,29,06,04,19.30
2015,06,29,06,05,19.30
2015,06,29,06,06,19.30
2015,06,29,06,07,19.30
2015,06,29,06,08,19.30
2015,06,29,06,09,19.30
2015,06,29,06,10,19.30
2015,06,29,06,11,19.30
2015,06,29,06,12,19.30
2015,06,29,06,13,19.30
2015,06,29,06,14,19.20
2015,06,29,06,15,19.20
2015,06,29,06,16,19.20
2015,06,29,06,17,19.20
2015,06,29,06,18,19.20
2015,06,29,06,19,19.10
2015,06,29,06,20,19.10
2015,06,29,06,21,19.10
2015,06,29,06,22,19.00
2015,06,29,06,23,19.00
2015,06,29,06,24,18.90
2015,06,29,06,25,18.90
2015,06,29,06,26,18.80
2015,06,29,06,27,18.80
2015,06,29,06,28,18.80
2015,06,29,06,29,18.80
2015,06,29,06,30,18.80
2015,06,29,06,31,18.80
2015,06,29,06,32,18.80
2015,06,29,06,33,18.80
2015,06,29,06,34,18.80
2015,06,29,06,35,18.80
2015,06,29,06,36,18.80
2015,06,29,06,37,18.80
2015,06,29,06,38,18.80
2015,06,29,06,39,18.80
2015,06,29,06,40,18.80
2015,06,29,06,41,18.80
2015,06,29,06,42,18.80
2015,06,29,06,43,18.80
2015,06,29,06,44,18.80
2015,06,29,06,45,18.80
2015,06,29,06,46,18.80
2015,06,29,06,47,18.80
2015,06,29,06,48,18.80
2015,06,29,06,49,18.80
2015,06,29,06,50,18.90
2015,06,29,06,51,18.90
2015,06,29,06,52,18.90
2015,06,29,06,53,18.90
2015,06,29,06,54,18.90
2015,06,29,06,55,18.90
2015,06,29,06,56,18.90
2015,06,29,06,57,19.00
2015,06,29,06,58,19.00
2015,06,29,06,59,19.10
2015,06,29,07,00,19.10
2015,06,29,07,01,19.10
2015,06,29,07,02,19.20
2015,06,29,07,03,19.20
2015,06,29,07,04,19.20
2015,06,29,07,05,19.20
2015,06,29,07,06,19.20
2015,06,29,07,07,19.30
2015,06,29,07,08,19.30
2015,06,29,07,09,19.30
2015,06,29,07,10,19.30
2015,06,29,07,11,19.30
2015,06,29,07,12,19.30
2015,06,29,07,13,19.30
2015,06,29,07,14,19.30
2015,06,29,07,15,19.40
2015,06,29,07,16,19.40
2015,06,29,07,17,19.40
2015,06,29,07,18,19.40
2015,06,29,07,19,19.40
2015,06,29,07,20,19.40
2015,06,29,07,21,19.40
2015,06,29,07,22,19.40
2015,06,29,07,23,19.40
2015,06,29,07,24,19.50
2015,06,29,07,25,19.50
2015,06,29,07,26,19.60
2015,06,29,07,27,19.60
2015,06,29,07,28,19.60
2015,06,29,07,29,19.60
2015,06,29,07,30,19.70
2015,06,29,07,31,19.70
2015,06,29,07,32,19.70
2015,06,29,07,33,19.80
2015,06,29,07,34,19.90
2015,06,29,07,35,20.00
2015,06,29,07,36,20.10
2015,06,29,07,37,20.30
2015,06,29,07,38,20.40
2015,06,29,07,39,20.50
2015,06,29,07,40,20.70
2015,06,29,07,41,20.80
2015,06,29,07,42,20.90
2015,06,29,07,43,21.00
2015,06,29,07,44,21.10
2015,06,29,07,45,21.20
2015,06,29,07,46,21.20
2015,06,29,07,47,21.20
2015,06,29,07,48,21.30
2015,06,29,07,49,21.30
2015,06,29,07,50,21.30
2015,06,29,07,51,21.40
2015,06,29,07,52,21.40
2015,06,29,07,53,21.50
2015,06,29,07,54,21.50
2015,06,29,07,55,21.70
2015,06,29,07,56,21.70
2015,06,29,07,57,21.80
2015,06,29,07,58,21.80
2015,06,29,07,59,21.80
2015,06,29,08,00,21.90
2015,06,29,08,01,21.80
2015,06,29,08,02,21.80
2015,06,29,08,03,21.80
2015,06,29,08,04,21.80
2015,06,29,08,05,21.80
2015,06,29,08,06,21.90
2015,06,29,08,07,21.90
2015,06,29,08,08,22.00
2015,06,29,08,09,22.10
2015,06,29,08,10,22.10
2015,06,29,08,11,22.20
2015,06,29,08,12,22.30
2015,06,29,08,13,22.40
2015,06,29,08,14,22.50
2015,06,29,08,15,22.50
2015,06,29,08,16,22.60
2015,06,29,08,17,22.70
2015,06,29,08,18,22.80
2015,06,29,08,19,22.90
2015,06,29,08,20,23.00
2015,06,29,08,21,23.20
2015,06,29,08,22,23.30
2015,06,29,08,23,23.30
2015,06,29,08,24,23.40
2015,06,29,08,25,23.50
2015,06,29,08,26,23.50
2015,06,29,08,27,23.60
2015,06,29,08,28,23.70
2015,06,29,08,29,23.70
2015,06,29,08,30,23.70
2015,06,29,08,31,23.80
2015,06,29,08,32,23.90
2015,06,29,08,33,24.00
2015,06,29,08,34,24.10
2015,06,29,08,35,24.20
2015,06,29,08,36,24.20
2015,06,29,08,37,24.30
2015,06,29,08,38,24.30
2015,06,29,08,39,24.40
2015,06,29,08,40,24.50
2015,06,29,08,41,24.60
2015,06,29,08,42,24.60
2015,06,29,08,43,24.70
2015,06,29,08,44,24.70
2015,06,29,08,45,24.70
2015,06,29,08,46,24.80
2015,06,29,08,47,24.90
2015,06,29,08,48,24.90
2015,06,29,08,49,25.00
2015,06,29,08,50,25.20
2015,06,29,08,51,25.30
2015,06,29,08,52,25.30
2015,06,29,08,53,25.40
2015,06,29,08,54,25.40
2015,06,29,08,55,25.40
2015,06,29,08,56,25.40
2015,06,29,08,57,25.40
2015,06,29,08,58,25.50
2015,06,29,08,59,25.60
2015,06,29,09,00,25.70
2015,06,29,09,01,25.70
2015,06,29,09,02,25.80
2015,06,29,09,03,25.80
2015,06,29,09,04,25.80
2015,06,29,09,05,25.70
2015,06,29,09,06,25.70
2015,06,29,09,07,25.50
2015,06,29,09,08,25.40
2015,06,29,09,09,25.30
2015,06,29,09,10,25.20
2015,06,29,09,11,25.20
2015,06,29,09,12,25.10
2015,06,29,09,13,25.00
2015,06,29,09,14,25.00
2015,06,29,09,15,25.10
2015,06,29,09,16,25.00
2015,06,29,09,17,25.00
2015,06,29,09,18,24.90
2015,06,29,09,19,24.80
2015,06,29,09,20,24.70
2015,06,29,09,21,24.70
2015,06,29,09,22,24.70
2015,06,29,09,23,24.70
2015,06,29,09,24,24.70
2015,06,29,09,25,24.80
2015,06,29,09,26,24.70
2015,06,29,09,27,24.70
2015,06,29,09,28,24.60
2015,06,29,09,29,24.40
2015,06,29,09,30,24.30
2015,06,29,09,31,24.30
2015,06,29,09,32,24.20
2015,06,29,09,33,24.20
2015,06,29,09,34,24.20
2015,06,29,09,35,24.20
2015,06,29,09,36,24.20
2015,06,29,09,37,24.20
2015,06,29,09,38,24.30
2015,06,29,09,39,24.30
2015,06,29,09,40,24.30
2015,06,29,09,41,24.30
2015,06,29,09,42,24.30
2015,06,29,09,43,24.40
2015,06,29,09,44,24.40
2015,06,29,09,45,24.40
2015,06,29,09,46,24.40
2015,06,29,09,47,24.40
2015,06,29,09,48,24.40
2015,06,29,09,49,24.40
2015,06,29,09,50,24.40
2015,06,29,09,51,24.40
2015,06,29,09,52,24.40
2015,06,29,09,53,24.40
2015,06,29,09,54,24.40
2015,06,29,09,55,24.40
2015,06,29,09,56,24.40
2015,06,29,09,57,24.40
2015,06,29,09,58,24.50
2015,06,29,09,59,24.50
2015,06,29,10,00,24.60
2015,06,29,10,01,24.70
2015,06,29,10,02,24.70
2015,06,29,10,03,24.80
2015,06,29,10,04,24.90
2015,06,29,10,05,25.00
2015,06,29,10,06,25.10
2015,06,29,10,07,25.10
2015,06,29,10,08,25.10
2015,06,29,10,09,25.10
2015,06,29,10,10,25.00
2015,06,29,10,11,25.00
2015,06,29,10,12,25.00
2015,06,29,10,13,24.90
2015,06,29,10,14,24.90
2015,06,29,10,15,24.90
2015,06,29,10,16,24.90
2015,06,29,10,17,24.90
2015,06,29,10,18,24.90
2015,06,29,10,19,25.00
2015,06,29,10,20,25.00
2015,06,29,10,21,25.10
2015,06,29,10,22,25.20
2015,06,29,10,23,25.30
2015,06,29,10,24,25.50
2015,06,29,10,25,25.70
2015,06,29,10,26,25.80
2015,06,29,10,27,25.90
2015,06,29,10,28,25.90
2015,06,29,10,29,25.90
2015,06,29,10,30,25.90
2015,06,29,10,31,25.80
2015,06,29,10,32,25.70
2015,06,29,10,33,25.70
2015,06,29,10,34,25.70
2015,06,29,10,35,25.70
2015,06,29,10,36,25.70
2015,06,29,10,37,25.70
2015,06,29,10,38,25.70
2015,06,29,10,39,25.70
2015,06,29,10,40,25.70
2015,06,29,10,41,25.70
2015,06,29,10,42,25.70
2015,06,29,10,43,25.70
2015,06,29,10,44,25.80
2015,06,29,10,45,25.90
2015,06,29,10,46,26.00
2015,06,29,10,47,26.10
2015,06,29,10,48,26.20
2015,06,29,10,49,26.20
2015,06,29,10,50,26.20
2015,06,29,10,51,26.20
2015,06,29,10,52,26.10
2015,06,29,10,53,26.00
2015,06,29,10,54,25.90
2015,06,29,10,55,25.90
2015,06,29,10,56,25.90
2015,06,29,10,57,25.90
2015,06,29,10,58,25.90
2015,06,29,10,59,25.80
2015,06,29,11,00,25.80
2015,06,29,11,01,25.90
2015,06,29,11,02,26.00
2015,06,29,11,03,26.10
2015,06,29,11,04,26.20
2015,06,29,11,05,26.30
2015,06,29,11,06,26.40
2015,06,29,11,07,26.40
2015,06,29,11,08,26.40
2015,06,29,11,09,26.50
2015,06,29,11,10,26.70
2015,06,29,11,11,26.80
2015,06,29,11,12,27.00
2015,06,29,11,13,27.10
2015,06,29,11,14,27.20
2015,06,29,11,15,27.30
2015,06,29,11,16,27.40
2015,06,29,11,17,27.40
2015,06,29,11,18,27.50
2015,06,29,11,19,27.60
2015,06,29,11,20,27.70
2015,06,29,11,21,27.70
2015,06,29,11,22,27.70
2015,06,29,11,23,27.80
2015,06,29,11,24,27.80
2015,06,29,11,25,27.90
2015,06,29,11,26,27.90
2015,06,29,11,27,28.00
2015,06,29,11,28,28.10
2015,06,29,11,29,28.20
2015,06,29,11,30,28.30
2015,06,29,11,31,28.40
2015,06,29,11,32,28.40
2015,06,29,11,33,28.50
2015,06,29,11,34,28.60
2015,06,29,11,35,28.80
2015,06,29,11,36,28.80
2015,06,29,11,37,28.80
2015,06,29,11,38,28.70
2015,06,29,11,39,28.70
2015,06,29,11,40,28.70
2015,06,29,11,41,28.60
2015,06,29,11,42,28.60
2015,06,29,11,43,28.60
2015,06,29,11,44,28.70
2015,06,29,11,45,28.70
2015,06,29,11,46,28.80
2015,06,29,11,47,28.80
2015,06,29,11,48,28.70
2015,06,29,11,49,28.50
2015,06,29,11,50,28.50
2015,06,29,11,51,28.40
2015,06,29,11,52,28.30
2015,06,29,11,53,28.30
2015,06,29,11,54,28.30
2015,06,29,11,55,28.40
2015,06,29,11,56,28.40
2015,06,29,11,57,28.40
2015,06,29,11,58,28.40
2015,06,29,11,59,28.40
2015,06,29,12,00,28.50
2015,06,29,12,01,28.50
2015,06,29,12,02,28.50
2015,06,29,12,03,28.60
2015,06,29,12,04,28.70
2015,06,29,12,05,28.80
2015,06,29,12,06,28.90
2015,06,29,12,07,29.10
2015,06,29,12,08,29.20
2015,06,29,12,09,29.30
2015,06,29,12,10,29.50
2015,06,29,12,11,29.70
2015,06,29,12,12,29.80
2015,06,29,12,13,29.90
2015,06,29,12,14,30.10
2015,06,29,12,15,30.20
2015,06,29,12,16,30.30
2015,06,29,12,17,30.40
2015,06,29,12,18,30.50
2015,06,29,12,19,30.60
2015,06,29,12,20,30.60
2015,06,29,12,21,30.40
2015,06,29,12,22,30.30
2015,06,29,12,23,30.30
2015,06,29,12,24,30.30
2015,06,29,12,25,30.40
2015,06,29,12,26,30.50
2015,06,29,12,27,30.60
2015,06,29,12,28,30.50
2015,06,29,12,29,30.50
2015,06,29,12,30,30.40
2015,06,29,12,31,30.40
2015,06,29,12,32,30.40
2015,06,29,12,33,30.40
2015,06,29,12,34,30.40
2015,06,29,12,35,30.50
2015,06,29,12,36,30.30
2015,06,29,12,37,30.20
2015,06,29,12,38,30.10
2015,06,29,12,39,30.00
2015,06,29,12,40,30.00
2015,06,29,12,41,30.00
2015,06,29,12,42,30.00
2015,06,29,12,43,30.00
2015,06,29,12,44,30.00
2015,06,29,12,45,30.00
2015,06,29,12,46,30.10
2015,06,29,12,47,30.20
2015,06,29,12,48,30.30
2015,06,29,12,49,30.30
2015,06,29,12,50,30.30
2015,06,29,12,51,30.30
2015,06,29,12,52,30.40
2015,06,29,12,53,30.30
2015,06,29,12,54,30.30
2015,06,29,12,55,30.40
2015,06,29,12,56,30.40
2015,06,29,12,57,30.50
2015,06,29,12,58,30.50
2015,06,29,12,59,30.50
2015,06,29,13,00,30.50
2015,06,29,13,01,30.50
2015,06,29,13,02,30.60
2015,06,29,13,03,30.60
2015,06,29,13,04,30.60
2015,06,29,13,05,30.60
2015,06,29,13,06,30.60
2015,06,29,13,07,30.60
2015,06,29,13,08,30.60
2015,06,29,13,09,30.60
2015,06,29,13,10,30.60
2015,06,29,13,11,30.70
2015,06,29,13,12,30.70
2015,06,29,13,13,30.70
2015,06,29,13,14,30.70
2015,06,29,13,15,30.60
2015,06,29,13,16,30.50
2015,06,29,13,17,30.40
2015,06,29,13,18,30.40
2015,06,29,13,19,30.40
2015,06,29,13,20,30.30
2015,06,29,13,21,30.20
2015,06,29,13,22,30.10
2015,06,29,13,23,30.10
2015,06,29,13,24,30.10
2015,06,29,13,25,30.00
2015,06,29,13,26,30.10
2015,06,29,13,27,30.10
2015,06,29,13,28,30.10
2015,06,29,13,29,30.10
2015,06,29,13,30,30.10
2015,06,29,13,31,30.20
2015,06,29,13,32,30.20
2015,06,29,13,33,30.30
2015,06,29,13,34,30.30
2015,06,29,13,35,30.30
2015,06,29,13,36,30.40
2015,06,29,13,37,30.40
2015,06,29,13,38,30.40
2015,06,29,13,39,30.30
2015,06,29,13,40,30.00
2015,06,29,13,41,29.90
2015,06,29,13,42,29.80
2015,06,29,13,43,29.70
2015,06,29,13,44,29.50
2015,06,29,13,45,29.40
2015,06,29,13,46,29.20
2015,06,29,13,47,29.10
2015,06,29,13,48,29.00
2015,06,29,13,49,28.90
2015,06,29,13,50,28.80
2015,06,29,13,51,28.80
2015,06,29,13,52,28.80
2015,06,29,13,53,28.90
2015,06,29,13,54,29.00
2015,06,29,13,55,29.10
2015,06,29,13,56,29.10
2015,06,29,13,57,29.20
2015,06,29,13,58,29.20
2015,06,29,13,59,29.20
2015,06,29,14,00,29.20
2015,06,29,14,01,29.30
2015,06,29,14,02,29.40
2015,06,29,14,03,29.50
2015,06,29,14,04,29.60
2015,06,29,14,05,29.60
2015,06,29,14,06,29.50
2015,06,29,14,07,29.50
2015,06,29,14,08,29.40
2015,06,29,14,09,29.40
2015,06,29,14,10,29.40
2015,06,29,14,11,29.40
2015,06,29,14,12,29.40
2015,06,29,14,13,29.50
2015,06,29,14,14,29.50
2015,06,29,14,15,29.60
2015,06,29,14,16,29.60
2015,06,29,14,17,29.70
2015,06,29,14,18,29.70
2015,06,29,14,19,29.80
2015,06,29,14,20,29.90
2015,06,29,14,21,30.00
2015,06,29,14,22,30.00
2015,06,29,14,23,30.00
2015,06,29,14,24,30.10
2015,06,29,14,25,30.10
2015,06,29,14,26,30.10
2015,06,29,14,27,30.20
2015,06,29,14,28,30.20
2015,06,29,14,29,30.20
2015,06,29,14,30,30.30
2015,06,29,14,31,30.30
2015,06,29,14,32,30.40
2015,06,29,14,33,30.40
2015,06,29,14,34,30.50
2015,06,29,14,35,30.60
2015,06,29,14,36,30.70
2015,06,29,14,37,30.80
2015,06,29,14,38,30.80
2015,06,29,14,39,30.90
2015,06,29,14,40,30.90
2015,06,29,14,41,30.90
2015,06,29,14,42,30.90
2015,06,29,14,43,30.80
2015,06,29,14,44,30.80
2015,06,29,14,45,30.80
2015,06,29,14,46,30.80
2015,06,29,14,47,30.80
2015,06,29,14,48,30.80
2015,06,29,14,49,30.70
2015,06,29,14,50,30.70
2015,06,29,14,51,30.60
2015,06,29,14,52,30.60
2015,06,29,14,53,30.70
2015,06,29,14,54,30.80
2015,06,29,14,55,30.90
2015,06,29,14,56,30.90
2015,06,29,14,57,31.00
2015,06,29,14,58,31.00
2015,06,29,14,59,30.90
2015,06,29,15,00,30.90
2015,06,29,15,01,30.80
2015,06,29,15,02,30.80
2015,06,29,15,03,30.80
2015,06,29,15,04,30.80
2015,06,29,15,05,30.80
2015,06,29,15,06,30.70
2015,06,29,15,07,30.60
2015,06,29,15,08,30.50
2015,06,29,15,09,30.50
2015,06,29,15,10,30.60
2015,06,29,15,11,30.60
2015,06,29,15,12,30.70
2015,06,29,15,13,30.70
2015,06,29,15,14,30.80
2015,06,29,15,15,30.80
2015,06,29,15,16,30.80
2015,06,29,15,17,30.80
2015,06,29,15,18,30.80
2015,06,29,15,19,30.80
2015,06,29,15,20,30.90
2015,06,29,15,21,30.90
2015,06,29,15,22,30.90
2015,06,29,15,23,30.90
2015,06,29,15,24,30.90
2015,06,29,15,25,30.90
2015,06,29,15,26,30.90
2015,06,29,15,27,30.90
2015,06,29,15,28,30.80
2015,06,29,15,29,30.70
2015,06,29,15,30,30.60
2015,06,29,15,31,30.50
2015,06,29,15,32,30.50
2015,06,29,15,33,30.40
2015,06,29,15,34,30.40
2015,06,29,15,35,30.40
2015,06,29,15,36,30.50
2015,06,29,15,37,30.40
2015,06,29,15,38,30.30
2015,06,29,15,39,30.30
2015,06,29,15,40,30.30
2015,06,29,15,41,30.40
2015,06,29,15,42,30.40
2015,06,29,15,43,30.40
2015,06,29,15,44,30.40
2015,06,29,15,45,30.30
2015,06,29,15,46,30.30
2015,06,29,15,47,30.30
2015,06,29,15,48,30.30
2015,06,29,15,49,30.20
2015,06,29,15,50,30.20
2015,06,29,15,51,30.10
2015,06,29,15,52,30.10
2015,06,29,15,53,30.10
2015,06,29,15,54,30.00
2015,06,29,15,55,29.90
2015,06,29,15,56,29.90
2015,06,29,15,57,29.80
2015,06,29,15,58,29.80
2015,06,29,15,59,29.70
2015,06,29,16,00,29.70
2015,06,29,16,01,29.70
2015,06,29,16,02,29.60
2015,06,29,16,03,29.60
2015,06,29,16,04,29.60
2015,06,29,16,05,29.60
2015,06,29,16,06,29.60
2015,06,29,16,07,29.60
2015,06,29,16,08,29.60
2015,06,29,16,09,29.60
2015,06,29,16,10,29.60
2015,06,29,16,11,29.60
2015,06,29,16,12,29.60
2015,06,29,16,13,29.60
2015,06,29,16,14,29.60
2015,06,29,16,15,29.50
2015,06,29,16,16,29.40
2015,06,29,16,17,29.30
2015,06,29,16,18,29.10
2015,06,29,16,19,29.00
2015,06,29,16,20,28.90
2015,06,29,16,21,28.80
2015,06,29,16,22,28.80
2015,06,29,16,23,28.80
2015,06,29,16,24,28.70
2015,06,29,16,25,28.70
2015,06,29,16,26,28.70
2015,06,29,16,27,28.60
2015,06,29,16,28,28.60
2015,06,29,16,29,28.50
2015,06,29,16,30,28.50
2015,06,29,16,31,28.40
2015,06,29,16,32,28.40
2015,06,29,16,33,28.40
2015,06,29,16,34,28.30
2015,06,29,16,35,28.30
2015,06,29,16,36,28.30
2015,06,29,16,37,28.30
2015,06,29,16,38,28.20
2015,06,29,16,39,28.20
2015,06,29,16,40,28.20
2015,06,29,16,41,28.20
2015,06,29,16,42,28.20
2015,06,29,16,43,28.20
2015,06,29,16,44,28.20
2015,06,29,16,45,28.20
2015,06,29,16,46,28.20
2015,06,29,16,47,28.10
2015,06,29,16,48,28.20
2015,06,29,16,49,28.20
2015,06,29,16,50,28.30
2015,06,29,16,51,28.30
2015,06,29,16,52,28.40
2015,06,29,16,53,28.50
2015,06,29,16,54,28.50
2015,06,29,16,55,28.60
2015,06,29,16,56,28.70
2015,06,29,16,57,28.80
2015,06,29,16,58,28.90
2015,06,29,16,59,29.00
2015,06,29,17,00,29.10
2015,06,29,17,01,29.10
2015,06,29,17,02,29.20
2015,06,29,17,03,29.20
2015,06,29,17,04,29.30
2015,06,29,17,05,29.30
2015,06,29,17,06,29.40
2015,06,29,17,07,29.50
2015,06,29,17,08,29.50
2015,06,29,17,09,29.50
2015,06,29,17,10,29.50
2015,06,29,17,11,29.60
2015,06,29,17,12,29.60
2015,06,29,17,13,29.60
2015,06,29,17,14,29.60
2015,06,29,17,15,29.60
2015,06,29,17,16,29.50
2015,06,29,17,17,29.50
2015,06,29,17,18,29.40
2015,06,29,17,19,29.40